Wetbulb
57.15 58.57 59.59 60.12 61.89 61.14 60.71 61.98 63.72 67.73 68.71 68.35 68.35 68.17 67.50 66.82 66.89 67.11 67.33 66.56 66.41 67.00 66.14 65.55 64.86 65.13 63.82 62.47 62.49 61.08 59.96 59.36 60.48 59.26 58.60 58.88 59.82 59.71 59.39 60.36 59.65 59.68 59.87
56.06 57.52 58.77 59.87 59.69 60.09 62.26 63.02 63.03 62.99 65.34 67.56 67.28 68.17 68.02 67.21 66.46 66.16 66.84 67.21 66.86 66.50 65.24 64.97 63.63 63.94 62.36 61.33 60.79 59.44 57.93 58.37 60.05 57.49 56.61 54.00 55.74 57.77 58.65 59.18 59.53 58.46 59.52
54.89 56.16 57.50 58.87 60.71 61.15 62.24 61.97 62.25 62.82 63.40 62.95 66.15 66.58 66.01 64.81 63.63 63.86 64.40 66.58 66.29 65.80 65.26 64.22 63.63 62.76 61.72 60.25 59.91 59.29 57.64 56.29 57.93 58.80 56.03 52.18 51.13 54.58 56.88 57.32 58.40 58.01 58.01
53.97 54.24 56.04 57.98 59.50 60.93 62.64 62.49 63.36 63.11 63.44 64.69 63.83 64.96 63.01 61.89 62.98 63.29 63.69 65.35 65.48 65.02 64.92 64.53 62.87 61.61 60.97 59.62 59.31 59.20 58.45 57.59 56.05 57.29 57.63 56.43 56.01 52.33 50.93 55.63 56.59 57.78 57.36
52.14 53.90 56.69 58.15 59.36 60.63 61.73 62.23 63.05 63.16 63.36 64.01 64.17 64.73 63.45 63.48 63.15 62.69 62.51 63.29 64.15 64.44 64.08 64.25 62.78 60.97 60.08 59.51 58.76 58.25 57.78 57.70 57.05 56.38 55.35 55.15 55.37 55.31 53.12 50.32 53.45 56.53 57.34
55.23 55.42 57.45 58.28 58.95 60.25 60.64 61.29 61.26 60.90 63.30 63.58 64.01 64.68 63.07 62.63 61.98 62.42 61.83 62.33 63.36 63.67 64.10 63.45 62.43 61.12 59.78 58.82 58.69 58.59 58.03 57.14 57.47 57.00 56.32 55.24 54.31 53.87 53.82 51.64 52.80 53.55 55.54
54.75 53.85 54.91 55.73 57.16 58.06 59.14 59.33 59.35 58.81 60.53 63.27 62.77 64.09 64.04 63.06 62.36 62.98 62.77 62.15 61.87 62.22 62.72 62.91 61.64 60.84 59.76 58.87 58.94 58.12 57.76 57.00 56.13 56.25 56.17 56.60 56.35 56.41 55.34 53.46 52.75 52.46 54.28
54.71 54.94 55.64 56.26 56.09 56.53 56.29 56.46 56.00 56.67 58.75 59.00 62.12 62.76 64.28 62.86 62.97 63.83 63.92 62.01 61.53 61.75 62.75 62.52 61.84 60.63 60.22 59.23 58.71 58.06 57.40 56.92 56.21 56.11 56.45 57.11 57.01 57.41 56.20 54.80 52.96 50.71 51.58
53.61 54.17 55.36 55.49 54.91 54.51 54.83 54.49 54.49 55.30 57.14 57.64 58.97 61.96 62.05 62.60 62.20 63.84 63.38 62.61 62.23 61.91 62.27 62.00 60.36 60.14 59.72 59.07 58.24 57.31 56.91 56.71 56.41 56.54 56.80 56.80 57.15 57.46 56.92 56.52 55.61 52.52 48.30
53.44 53.93 53.56 53.58 54.11 54.38 53.95 53.41 52.88 53.08 54.63 55.41 57.75 61.10 60.61 61.77 62.51 63.27 62.06 62.34 61.82 61.19 61.20 60.36 59.44 58.74 58.65 58.71 57.76 57.01 56.93 56.25 56.45 56.65 56.41 56.19 56.77 56.53 56.91 56.25 55.21 55.13 52.22
52.40 52.88 53.32 53.54 53.54 53.69 52.46 51.43 50.10 49.54 49.92 51.75 55.99 60.32 60.01 61.02 61.89 62.22 61.79 61.46 61.36 60.96 60.76 60.04 59.36 58.81 57.80 57.99 57.15 56.71 56.37 55.79 55.87 56.21 56.13 55.85 56.35 55.99 56.01 55.99 54.84 53.91 53.75
50.79 51.16 50.97 50.74 50.69 50.85 50.66 48.46 47.62 47.15 47.00 48.53 57.49 59.39 59.86 60.10 60.83 60.98 61.05 60.73 60.11 60.66 60.61 59.47 58.46 57.52 56.77 56.73 56.29 55.83 56.05 55.59 55.21 55.57 55.71 55.49 55.87 55.43 55.85 55.17 54.31 54.24 54.04
47.65 47.69 48.25 47.65 47.50 48.06 47.99 46.79 46.07 45.21 44.97 47.01 54.62 57.85 58.08 58.82 59.32 59.89 59.45 59.84 59.78 59.69 58.85 59.73 58.26 57.03 56.53 55.81 55.61 55.47 55.19 55.59 55.81 55.79 55.37 55.33 55.15 54.57 55.01 54.53 53.35 53.12 54.09
45.19 45.10 44.99 44.87 44.62 45.10 44.69 44.04 43.30 43.70 43.29 45.49 53.48 56.45 56.70 57.86 58.55 58.74 58.68 59.12 59.12 58.36 58.12 59.21 58.02 56.80 56.07 55.49 55.05 54.74 54.18 54.63 54.95 55.35 55.83 55.63 54.93 53.68 53.77 53.88 53.57 53.11 52.65
42.41 42.27 41.76 41.34 41.55 41.53 41.33 40.82 41.15 41.28 41.64 42.51 48.62 56.07 57.05 57.59 58.55 57.40 57.57 58.51 58.27 57.86 57.56 57.71 57.07 56.65 56.11 55.45 54.82 54.44 53.88 53.52 53.76 54.30 54.54 54.77 53.84 49.92 51.56 53.20 52.79 52.89 51.96
39.98 39.61 38.91 38.02 37.89 37.95 37.68 38.46 38.72 38.83 40.44 42.92 47.47 56.41 56.76 56.83 57.16 56.88 57.11 57.47 57.30 57.31 56.81 56.10 56.69 56.18 56.01 45.73 46.11 51.18 53.34 53.24 52.91 52.35 52.79 52.55 48.03 47.51 45.39 46.11 46.48 50.47 51.73
37.64 36.38 35.96 35.51 35.69 35.88 36.20 36.72 37.89 38.86 38.68 43.86 53.07 55.47 55.97 56.23 56.49 56.80 56.49 56.50 56.29 56.83 56.41 55.68 55.87 55.34 55.31 44.54 44.46 45.37 53.80 52.65 52.48 52.15 52.12 51.59 51.21 48.34 50.09 40.44 37.69 36.17 36.13
35.25 34.59 34.68 33.98 34.09 34.94 35.17 36.19 36.81 36.95 36.38 37.27 41.51 50.18 54.89 55.43 56.45 56.26 55.78 55.86 56.25 56.14 56.22 55.83 56.04 55.68 51.08 42.31 42.85 42.49 54.21 52.88 52.21 52.21 52.23 51.97 50.47 50.53 47.71 40.11 34.49 32.67 32.80
34.46 33.86 34.24 33.40 33.53 33.47 34.70 34.97 34.36 34.67 34.50 33.53 35.39 38.38 43.42 54.25 55.33 55.04 55.25 55.64 55.47 55.47 53.44 50.31 47.59 46.70 39.77 37.76 40.31 44.65 52.22 52.52 51.03 50.10 43.19 49.69 50.88 44.03 41.95 38.03 32.65 30.09 29.93
33.36 32.96 33.33 33.12 32.26 32.31 33.93 33.20 32.14 31.86 31.57 32.02 33.60 35.72 38.05 42.08 46.12 48.97 50.91 50.08 50.49 44.01 39.46 36.30 35.61 35.37 37.95 36.13 38.81 42.67 51.32 43.65 37.28 35.61 35.28 34.90 41.84 38.68 38.24 37.81 33.45 28.79 27.22
31.76 32.58 33.12 31.52 31.41 32.73 32.62 32.22 31.71 30.73 31.52 31.94 32.96 34.23 34.33 36.32 37.88 39.31 41.20 41.12 38.25 35.20 32.64 31.15 31.17 31.97 33.12 34.58 37.55 39.69 46.33 37.96 33.42 32.50 32.10 32.67 34.28 35.97 35.33 35.89 33.65 28.52 26.23
30.54 30.51 29.82 29.83 30.88 31.66 31.68 31.51 30.95 31.75 31.78 31.53 31.50 31.60 32.31 32.61 34.46 34.93 35.10 35.45 34.11 31.80 30.09 28.66 27.64 28.45 30.25 32.66 33.87 35.02 35.34 34.21 31.53 30.23 30.94 31.53 32.39 31.84 31.21 29.73 29.35 27.93 26.24
29.80 30.19 29.17 28.63 29.58 29.76 30.43 29.66 31.51 31.79 31.79 30.52 29.59 29.61 30.67 31.64 31.94 31.74 31.96 31.67 31.33 30.19 28.62 27.43 26.11 25.65 26.84 27.53 30.60 30.87 30.71 29.95 28.34 28.70 29.39 29.32 29.21 28.69 27.73 28.08 27.51 26.11 25.32
29.26 29.56 28.72 28.02 27.39 29.50 30.16 30.77 32.38 32.76 31.79 29.82 29.05 28.73 28.29 28.40 29.84 29.98 29.96 29.24 29.23 28.04 27.47 26.76 25.51 25.71 26.16 26.02 27.04 26.66 27.36 27.96 26.73 26.10 26.74 26.85 26.62 25.88 25.47 26.15 26.89 25.75 24.79
30.41 29.26 28.00 27.32 27.06 28.66 28.77 30.54 31.43 32.67 30.99 30.02 29.56 28.44 27.41 26.77 26.64 27.83 28.15 27.85 28.66 28.66 27.14 26.96 27.21 26.10 25.45 27.52 28.65 27.91 27.56 28.08 28.15 28.02 27.71 26.88 26.33 25.52 25.39 25.38 25.73 26.30 25.79
29.60 28.07 27.60 27.61 27.01 27.36 27.69 29.36 30.74 30.79 30.20 28.67 28.88 29.08 28.13 26.68 25.46 25.00 25.42 29.90 29.88 30.46 30.69 30.55 29.43 30.38 31.39 31.95 31.99 32.03 32.19 31.76 30.81 28.88 27.02 26.24 25.86 24.85 24.67 23.90 23.36 23.79 23.27
MSLP
996.86 997.17 997.71 998.49 999.06 999.63 1000.27 1000.93 1001.54 1002.27 1003.13 1004.02 1004.93 1005.50 1005.68 1006.33 1006.70 1007.13 1007.61 1008.27 1009.06 1009.56 1010.01 1010.34 1010.62 1011.20 1012.05 1012.97 1013.74 1014.66 1015.12 1015.53 1015.87 1016.35 1016.67 1017.06 1017.44 1017.45 1017.50 1017.39 1018.29 1018.50 1019.13
996.71 997.14 997.73 998.48 999.26 999.91 1000.52 1001.09 1001.60 1002.22 1002.89 1003.62 1004.11 1004.68 1005.24 1005.70 1006.31 1006.78 1007.23 1007.60 1008.26 1008.83 1009.49 1009.91 1010.27 1010.86 1011.85 1012.75 1013.48 1014.15 1014.73 1015.22 1015.41 1015.79 1016.53 1016.88 1017.44 1017.42 1017.43 1017.44 1017.95 1018.32 1018.82
996.82 997.14 997.66 998.52 999.48 1000.25 1000.83 1001.45 1001.81 1002.15 1002.42 1002.83 1003.47 1004.30 1005.20 1005.99 1006.53 1006.78 1007.05 1007.15 1007.60 1008.07 1008.94 1009.55 1010.19 1010.68 1011.45 1012.24 1012.99 1013.59 1014.08 1014.54 1015.08 1015.29 1015.59 1016.27 1016.63 1017.26 1017.39 1017.42 1017.70 1018.30 1018.66
996.69 996.99 997.51 998.62 999.64 1000.50 1000.92 1001.60 1002.11 1002.25 1002.03 1002.18 1002.78 1003.69 1004.57 1005.46 1005.82 1006.31 1006.81 1007.03 1007.24 1007.86 1008.44 1008.97 1009.72 1010.45 1011.08 1011.79 1012.42 1012.99 1013.57 1013.99 1014.44 1015.16 1015.27 1015.30 1015.34 1015.77 1017.18 1017.21 1017.68 1017.99 1018.19
996.83 997.22 997.91 998.80 999.75 1000.34 1001.12 1001.85 1002.40 1002.58 1002.23 1002.09 1002.34 1003.25 1004.01 1004.57 1005.29 1005.98 1006.43 1006.92 1007.00 1007.47 1008.04 1008.45 1009.20 1010.07 1010.70 1011.29 1011.83 1012.43 1013.04 1013.39 1013.70 1014.24 1014.66 1015.09 1015.49 1015.72 1016.26 1017.09 1017.35 1017.85 1017.93
996.87 997.61 998.25 999.31 1000.14 1000.63 1001.32 1002.01 1002.46 1002.38 1002.16 1002.18 1002.28 1002.62 1003.46 1004.10 1004.82 1005.18 1005.63 1006.13 1006.58 1007.00 1007.43 1007.93 1008.63 1009.63 1010.24 1010.74 1011.32 1011.86 1012.43 1012.85 1013.24 1013.76 1014.16 1014.31 1014.45 1015.38 1015.81 1016.75 1017.17 1017.61 1017.82
997.79 998.54 999.05 1000.03 1001.02 1001.35 1001.74 1002.11 1002.45 1002.53 1002.29 1002.06 1002.24 1002.35 1002.87 1003.71 1004.19 1004.43 1004.60 1005.08 1005.85 1006.49 1006.91 1007.49 1008.19 1009.09 1009.68 1010.24 1010.89 1011.44 1011.95 1012.47 1012.89 1013.35 1013.87 1014.17 1014.39 1014.74 1015.43 1016.19 1016.96 1017.47 1017.54
998.79 999.60 1000.10 1000.94 1002.00 1002.43 1002.97 1003.25 1003.36 1003.23 1002.69 1002.47 1002.00 1002.03 1002.59 1003.27 1003.58 1003.76 1003.53 1004.12 1004.87 1005.75 1006.40 1007.04 1007.69 1008.48 1009.18 1009.77 1010.43 1010.99 1011.48 1011.99 1012.48 1013.00 1013.42 1013.88 1014.13 1014.47 1015.25 1015.60 1016.35 1017.16 1017.35
999.25 1000.08 1000.85 1001.95 1002.97 1003.61 1004.08 1004.40 1004.14 1003.77 1003.14 1002.84 1002.24 1001.62 1001.97 1002.75 1003.21 1003.10 1003.11 1003.31 1004.04 1005.07 1005.81 1006.60 1007.36 1007.96 1008.63 1009.33 1009.96 1010.54 1011.05 1011.59 1012.04 1012.46 1012.91 1013.52 1013.96 1014.46 1015.02 1015.27 1015.92 1016.27 1016.96
999.86 1000.70 1001.69 1002.64 1003.55 1003.98 1004.43 1004.61 1004.62 1004.15 1003.63 1003.36 1002.24 1001.53 1001.49 1001.98 1002.74 1002.86 1002.84 1002.87 1003.40 1004.53 1005.54 1006.36 1007.12 1007.58 1008.21 1008.82 1009.42 1010.11 1010.70 1011.21 1011.69 1012.18 1012.71 1013.09 1013.79 1014.29 1014.79 1015.39 1016.03 1016.37 1016.18
1001.20 1001.92 1002.74 1003.36 1003.95 1004.34 1004.64 1004.86 1004.91 1004.66 1004.02 1003.37 1001.96 1000.69 1000.92 1001.35 1002.18 1002.46 1002.41 1002.47 1003.28 1004.17 1005.09 1005.98 1006.63 1007.06 1007.74 1008.32 1008.97 1009.68 1010.23 1010.74 1011.29 1011.87 1012.28 1012.79 1013.46 1014.09 1014.73 1015.39 1016.01 1016.14 1016.25
1003.19 1003.56 1004.27 1004.78 1004.95 1005.04 1005.07 1005.29 1005.06 1004.84 1004.34 1003.45 1001.39 1000.19 1000.76 1001.20 1001.91 1002.09 1002.11 1002.24 1003.02 1004.11 1004.96 1005.74 1006.37 1006.87 1007.32 1007.93 1008.53 1009.19 1009.80 1010.25 1010.81 1011.30 1011.92 1012.50 1013.15 1013.76 1014.48 1015.04 1015.72 1016.24 1016.14
1004.38 1005.00 1005.45 1005.77 1006.23 1006.53 1006.33 1006.03 1005.80 1005.09 1004.69 1003.70 1002.17 1000.95 1000.78 1001.17 1001.57 1001.79 1001.79 1002.20 1003.07 1004.03 1004.52 1005.22 1005.97 1006.49 1006.99 1007.64 1008.34 1008.87 1009.44 1009.81 1010.20 1010.80 1011.32 1011.98 1012.62 1013.32 1013.84 1014.62 1015.42 1015.93 1015.94
1005.81 1006.40 1006.99 1007.55 1007.86 1007.72 1007.43 1007.28 1006.40 1005.76 1005.02 1003.67 1002.04 1001.00 1000.96 1001.13 1001.31 1001.42 1001.70 1002.21 1002.98 1003.79 1004.23 1004.83 1005.72 1006.19 1006.71 1007.28 1008.12 1008.72 1009.24 1009.63 1010.02 1010.47 1010.84 1011.32 1012.00 1012.67 1013.32 1014.01 1014.79 1015.64 1016.20
1007.79 1008.30 1008.59 1008.71 1008.78 1008.71 1008.49 1008.01 1007.18 1006.27 1005.11 1003.85 1002.23 1000.77 1000.86 1001.05 1001.19 1001.29 1001.60 1002.29 1003.19 1003.74 1004.45 1004.85 1005.61 1006.00 1006.44 1007.06 1007.88 1008.55 1009.04 1009.47 1009.89 1010.22 1010.64 1011.07 1011.55 1011.97 1012.81 1013.58 1014.29 1015.08 1015.83
1009.55 1010.08 1010.40 1010.44 1010.34 1010.02 1009.38 1008.55 1007.51 1006.27 1005.03 1003.39 1001.87 1000.66 1000.77 1000.90 1000.96 1001.17 1001.68 1002.26 1003.27 1003.74 1004.40 1004.80 1005.44 1005.86 1006.18 1007.00 1007.71 1008.38 1008.83 1009.38 1009.79 1010.20 1010.61 1011.02 1011.52 1012.06 1012.59 1013.24 1014.01 1014.72 1015.41
1011.32 1011.71 1011.84 1011.86 1011.60 1011.08 1010.35 1009.16 1007.91 1006.67 1005.28 1003.05 1001.00 1000.54 1000.73 1000.81 1000.92 1001.15 1001.69 1002.38 1003.33 1003.85 1004.38 1004.92 1005.20 1005.63 1005.93 1006.97 1007.70 1008.27 1008.73 1009.28 1009.69 1010.12 1010.64 1011.15 1011.62 1012.21 1012.85 1013.59 1014.30 1015.11 1015.59
1012.58 1012.77 1012.78 1012.68 1012.53 1011.78 1010.78 1009.77 1008.58 1007.24 1005.85 1003.88 1002.74 1001.31 1000.75 1000.80 1000.89 1001.36 1001.78 1002.66 1003.46 1004.01 1004.55 1005.11 1005.33 1005.85 1006.56 1007.25 1007.88 1008.36 1008.72 1009.23 1009.70 1010.07 1010.55 1011.06 1011.68 1012.29 1013.01 1014.19 1015.39 1016.30 1016.87
1013.59 1013.71 1013.71 1013.88 1013.34 1012.45 1011.35 1010.31 1009.00 1007.77 1006.35 1005.59 1004.32 1003.37 1002.12 1001.05 1001.06 1001.48 1002.05 1002.82 1003.57 1004.29 1004.83 1005.55 1006.01 1006.75 1007.95 1008.24 1008.10 1008.54 1008.85 1009.32 1009.81 1010.25 1010.96 1011.05 1011.48 1011.99 1012.81 1014.16 1015.57 1016.90 1017.93
1014.74 1014.73 1014.56 1014.30 1013.68 1012.81 1011.84 1010.84 1009.54 1008.58 1007.61 1006.59 1005.87 1004.99 1003.66 1002.63 1002.05 1002.14 1002.56 1003.18 1003.90 1005.16 1006.17 1007.22 1007.99 1008.48 1008.68 1009.07 1008.80 1008.85 1008.95 1009.79 1010.76 1011.49 1011.83 1011.75 1011.70 1011.92 1012.60 1013.80 1015.11 1016.91 1018.31
1015.51 1015.26 1014.65 1014.39 1014.03 1013.32 1012.36 1011.30 1010.47 1010.03 1009.29 1007.75 1007.07 1006.32 1004.97 1004.55 1003.76 1003.65 1003.83 1004.09 1004.95 1006.33 1007.45 1008.27 1009.23 1009.42 1009.71 1009.85 1009.20 1009.12 1009.21 1010.31 1011.48 1012.34 1012.88 1013.12 1012.56 1012.50 1013.22 1013.87 1014.98 1016.53 1018.11
1015.80 1015.60 1015.19 1014.83 1014.34 1014.13 1012.99 1011.93 1011.47 1011.41 1010.29 1008.76 1007.98 1007.33 1006.33 1006.38 1005.63 1005.05 1005.25 1005.25 1006.14 1007.44 1008.76 1009.32 1010.21 1010.93 1011.00 1010.82 1010.51 1010.17 1010.36 1011.10 1011.94 1013.37 1014.09 1014.44 1014.28 1014.45 1014.62 1015.31 1016.46 1017.57 1018.34
1016.34 1016.21 1015.92 1015.63 1015.39 1014.64 1013.99 1013.25 1013.04 1012.06 1011.17 1010.29 1009.18 1008.77 1008.26 1007.53 1007.06 1006.98 1006.54 1007.07 1008.01 1008.57 1009.46 1010.04 1011.01 1012.02 1012.35 1012.26 1012.11 1012.30 1012.32 1012.78 1013.35 1014.55 1015.19 1015.64 1015.82 1016.12 1016.68 1017.37 1017.92 1018.32 1019.39
1016.61 1016.65 1016.65 1016.42 1016.08 1015.55 1014.89 1014.64 1013.93 1013.22 1012.48 1011.49 1010.73 1010.24 1010.23 1009.38 1008.69 1008.27 1007.17 1008.81 1010.07 1009.75 1010.66 1011.15 1012.20 1012.71 1013.18 1013.20 1013.68 1014.26 1014.09 1014.43 1015.04 1015.97 1016.49 1016.38 1017.20 1017.36 1018.21 1018.47 1019.14 1019.93 1020.26
1017.18 1017.32 1017.20 1017.04 1016.94 1016.63 1016.31 1015.78 1014.87 1013.96 1013.54 1012.85 1012.08 1011.97 1012.76 1011.47 1011.14 1011.14 1010.81 1011.63 1011.54 1011.66 1011.87 1012.35 1012.59 1012.73 1013.51 1014.49 1014.81 1014.92 1015.14 1015.51 1016.29 1016.67 1016.84 1017.67 1018.04 1018.64 1019.47 1019.82 1020.18 1020.98 1021.43
1017.73 1017.75 1017.74 1017.69 1017.72 1017.37 1017.01 1016.46 1015.84 1015.01 1014.35 1014.06 1013.90 1013.58 1013.74 1013.39 1013.48 1013.26 1013.24 1013.61 1013.42 1012.97 1013.01 1013.68 1014.04 1014.60 1014.89 1015.26 1015.48 1015.81 1016.12 1016.56 1017.01 1017.08 1017.76 1018.67 1019.21 1019.81 1020.25 1020.55 1021.21 1021.82 1022.11
Wind_Speed
11 8 7 7 4 5 7 5 5 7 8 8 9 9 9 8 7 5 8 9 9 10 10 7 5 7 7 8 8 4 7 3 6 4 5 3 5 7 7 9 7 11 10
10 9 10 9 6 3 3 2 2 4 6 8 8 7 9 6 6 4 6 13 14 13 10 8 5 8 8 9 9 9 4 4 8 5 7 6 2 2 3 7 8 10 7
12 12 13 10 8 4 2 3 5 6 7 8 6 4 5 3 4 6 8 8 12 11 11 9 8 9 8 9 10 11 11 6 6 5 4 4 4 6 3 8 10 10 8
9 9 8 11 8 5 3 4 5 7 6 8 6 12 9 8 8 7 8 7 7 9 11 11 11 10 8 9 9 9 9 9 8 4 3 3 2 7 4 2 6 10 10
13 6 9 8 7 6 6 4 2 6 8 6 8 10 10 8 7 8 10 12 9 10 11 10 12 11 8 10 11 11 10 9 9 8 4 3 2 3 6 7 3 7 8
9 8 8 6 2 4 6 2 4 8 6 7 6 11 13 11 9 10 11 10 7 8 9 11 11 10 10 11 10 11 12 10 9 6 7 7 8 8 7 6 4 8 9
8 6 6 4 8 9 9 7 7 9 11 7 7 7 11 13 13 13 11 12 9 7 10 11 12 10 11 11 10 11 12 11 10 10 7 5 4 7 7 7 6 5 4
8 4 9 11 11 12 13 13 14 17 10 15 8 7 6 7 10 13 9 10 10 9 10 11 11 13 11 11 10 9 9 11 10 12 10 6 6 6 4 5 10 4 5
9 9 10 11 10 9 10 11 12 16 13 15 16 8 8 10 11 12 6 9 9 9 12 12 12 11 11 11 11 8 10 10 11 11 12 10 6 6 3 3 3 7 5
10 7 10 9 6 6 8 11 14 15 15 19 18 9 11 11 13 8 7 9 10 9 12 12 12 11 11 11 11 8 10 11 9 8 12 10 7 5 4 3 1 5 5
15 12 10 11 11 10 9 11 12 13 16 16 21 12 10 10 11 8 7 7 9 8 11 12 12 12 12 11 11 10 11 13 12 11 10 12 10 7 6 4 2 3 4
12 13 12 11 12 13 13 14 14 14 15 15 17 8 8 9 10 5 7 8 9 8 12 11 11 10 11 11 11 11 10 13 13 12 12 10 9 12 9 5 5 4 4
15 14 13 13 14 14 14 15 16 16 16 15 16 4 7 9 8 5 7 8 8 9 9 13 12 11 11 10 10 11 11 11 12 13 12 14 12 12 11 9 6 2 2
16 15 13 13 13 14 15 16 17 16 16 15 15 8 9 10 9 8 8 9 7 9 9 9 10 10 10 10 9 9 9 9 8 8 13 14 15 13 12 11 11 6 4
14 15 15 15 15 15 15 17 17 17 16 17 15 9 9 10 9 11 10 9 7 8 7 9 9 10 9 8 10 9 9 9 8 7 7 8 13 14 14 9 10 10 6
13 15 15 16 16 16 16 17 18 18 16 17 13 7 8 7 9 10 10 10 9 9 8 11 10 10 7 13 13 10 8 8 8 7 6 6 9 12 16 14 12 10 9
13 13 13 14 14 14 16 16 17 15 15 16 9 9 9 7 6 9 11 9 9 9 9 9 9 8 7 15 13 11 7 8 7 7 7 5 5 8 7 7 15 14 14
11 11 11 12 13 13 15 15 14 14 14 16 15 8 8 7 8 9 10 10 7 6 9 9 8 6 6 10 10 10 6 6 7 7 8 8 8 9 8 10 9 9 8
10 9 10 10 11 13 14 14 14 13 14 16 15 14 12 6 8 11 11 9 9 7 6 7 10 11 10 12 6 9 5 5 4 5 7 1 8 11 18 12 11 11 11
9 9 9 10 11 14 14 13 15 16 16 15 14 13 12 10 7 6 6 4 10 11 10 12 11 14 10 14 8 4 4 6 6 6 7 13 4 15 19 13 13 12 9
10 11 9 9 12 13 13 13 15 16 14 13 12 12 13 12 9 8 7 10 13 12 12 14 12 14 14 13 10 4 4 7 7 6 6 7 14 16 16 11 9 9 14
12 13 11 11 12 14 13 14 15 14 13 13 13 14 12 10 10 11 11 12 13 13 11 12 11 10 13 20 22 21 17 14 12 10 9 12 24 25 25 19 26 23 14
10 10 10 11 11 13 14 14 11 11 12 13 16 17 15 10 12 13 13 11 10 10 9 10 10 9 8 11 27 26 26 24 17 11 21 27 28 28 22 24 22 15 9
10 10 10 10 11 12 14 13 12 9 10 13 15 16 15 16 16 10 13 11 9 10 9 10 9 8 8 8 8 7 12 22 17 15 13 17 17 18 14 13 13 9 9
8 9 10 11 12 11 12 12 13 11 10 11 12 14 10 14 17 17 13 12 14 11 9 9 8 10 11 9 12 12 10 10 11 12 10 10 10 11 10 10 10 8 8
11 11 12 12 12 12 12 12 12 12 10 11 9 9 9 10 10 12 15 30 26 29 29 24 15 13 19 21 22 20 19 18 14 11 10 10 10 10 9 9 9 7 8
Wind_Direction
191 196 173 216 215 95 50 30 119 153 159 171 183 209 207 194 196 198 164 174 200 193 200 200 181 153 144 154 158 150 173 173 173 175 178 195 210 193 189 161 167 163 158
221 203 199 129 127 97 61 332 260 188 173 187 198 205 213 185 189 188 202 193 194 189 198 188 176 149 152 154 164 165 155 176 179 173 173 170 177 262 263 159 161 159 155
222 225 216 130 119 142 132 246 257 260 208 212 186 157 81 104 177 203 223 208 181 180 182 182 159 160 157 169 178 183 175 176 187 195 157 146 178 155 243 169 164 165 166
245 256 155 125 136 164 134 54 318 300 266 197 198 160 174 189 203 200 203 231 183 185 183 188 159 169 166 172 178 178 186 177 181 181 240 96 155 156 160 227 165 174 169
219 170 112 123 141 154 136 103 233 276 289 276 194 171 194 204 185 194 189 219 207 193 199 180 153 172 176 176 173 176 186 191 179 187 161 110 150 77 151 186 160 176 177
97 87 94 91 90 138 109 86 306 292 259 267 250 180 195 198 201 198 196 198 196 192 191 169 164 176 176 174 178 180 183 186 190 187 182 182 171 169 157 159 183 181 187
100 97 105 122 38 19 14 20 347 323 314 242 253 215 185 197 210 224 197 186 184 191 191 175 170 177 175 177 179 183 187 189 187 186 182 177 176 158 161 165 178 188 170
109 165 81 56 33 17 4 359 343 320 308 312 255 203 174 197 217 239 201 171 175 187 183 186 176 174 168 176 182 183 185 188 191 193 187 176 170 158 171 151 172 171 189
121 73 76 63 42 10 359 344 328 312 308 298 299 203 170 201 236 237 198 169 162 178 183 175 181 174 174 173 175 181 186 187 189 193 188 187 167 165 153 108 158 187 169
79 70 76 66 45 12 347 349 328 317 311 303 288 215 190 201 226 242 197 181 164 174 164 173 178 169 173 174 170 176 182 183 185 179 180 164 162 148 154 139 104 262 174
54 52 37 22 13 9 349 337 338 326 310 300 289 198 188 197 221 231 195 162 151 150 162 174 179 172 173 177 173 177 179 184 184 183 179 178 165 168 169 169 184 275 299
37 34 25 16 360 346 349 338 334 323 315 308 301 166 176 183 219 216 191 140 147 158 169 175 174 171 170 172 175 173 177 183 185 186 191 177 173 181 180 167 173 208 259
31 18 10 8 359 341 340 338 328 328 316 310 289 182 177 195 204 202 162 139 152 184 183 172 174 171 170 171 180 179 180 184 187 189 181 187 174 184 180 176 159 159 316
18 8 1 354 345 339 341 330 325 321 311 301 281 191 194 208 207 176 159 154 153 181 182 148 158 161 163 163 175 179 179 183 183 185 194 187 182 171 168 176 178 152 151
9 358 354 350 343 338 335 328 319 316 314 308 295 196 203 208 201 166 152 162 161 163 172 155 155 153 157 161 170 183 179 181 177 173 178 185 187 179 173 167 169 163 163
6 1 349 345 338 339 330 322 319 319 316 298 286 190 190 175 166 158 151 162 158 155 173 172 159 156 156 153 160 167 165 173 176 174 164 158 169 176 175 173 161 172 168
5 356 350 343 338 336 327 325 323 322 327 326 263 181 184 177 169 156 153 157 166 156 162 167 159 151 144 156 166 160 162 164 167 166 170 163 167 166 171 93 87 72 62
2 355 353 349 340 335 335 331 330 337 352 355 356 342 175 180 168 160 150 159 162 164 160 162 154 141 89 150 153 169 152 165 176 175 174 174 169 182 141 116 89 73 54
10 358 360 348 338 344 340 341 347 348 6 356 356 347 348 188 168 164 160 156 156 154 78 49 50 93 61 31 152 161 172 150 120 83 55 193 172 165 141 133 120 102 91
8 357 359 359 357 352 347 354 3 2 2 359 349 351 1 11 61 71 108 66 93 88 86 71 56 47 58 24 40 189 142 100 92 60 39 28 49 156 152 145 145 130 130
9 4 10 17 5 353 347 7 11 6 349 359 357 1 20 14 34 57 68 98 93 89 80 79 60 55 39 27 32 114 88 119 95 70 53 43 54 99 79 100 123 121 120
15 18 16 17 10 1 357 10 14 350 352 10 20 13 26 21 27 58 61 74 91 92 86 83 72 56 52 50 51 67 84 96 95 84 76 73 79 81 87 90 106 109 107
18 18 17 17 15 9 8 8 355 355 351 15 32 31 19 23 47 35 59 57 67 83 85 81 78 67 58 63 63 70 79 82 85 87 95 89 86 85 80 88 87 88 86
25 15 18 23 20 18 11 3 359 13 9 25 37 35 29 36 44 42 52 50 42 72 70 82 83 82 72 63 67 71 78 80 84 85 83 85 81 77 79 78 73 73 82
37 25 20 24 23 21 20 7 4 14 28 32 41 49 37 45 53 49 55 62 55 69 81 69 73 74 72 72 86 88 87 88 95 101 92 80 79 81 79 76 77 83 87
31 28 25 27 26 23 20 14 17 17 29 38 33 42 42 48 55 60 65 58 65 68 69 70 74 81 84 85 86 84 80 84 84 82 81 79 79 82 84 85 89 86 84